Weather Roundup
Issued by NWS Springfield, MO

Home | Current Version | Previous Version | Text Only | Print | Product List | Glossary On
Versions: 1 2 3 4 5 6 7 8 9 10 11 12 13 14 15 16 17 18 19 20 21 22 23 24 25 26 27 28 29 30 31 32 33 34 35 36 37 38 39 40 41 42 43 44 45 46 47 48 49 50
709
NZUS99 KSGF 262007
HRRSGF

HOURLY WEATHER
NATIONAL WEATHER SERVICE SPRINGFIELD MO
300 PM CDT MON SEP 26 2016

......SGF CWA......

CITY           SKY/WX    TMP DP  RH WIND       PRES   REMARKS
SPRINGFIELD    SUNNY     73  41  31 N12       30.19F
JOPLIN         SUNNY     73  43  33 N8        30.22F
WEST PLAINS    SUNNY     74  43  32 N8        30.18F
ROLLA          SUNNY     70  38  31 NW14G20   30.16F
OSAGE BEACH    SUNNY     71  40  32 VRB7      30.18F
BRANSON        PTSUNNY   72  41  33 NW9       30.19F

......SURROUNDING SGF CWA......

CITY           SKY/WX    TMP DP  RH WIND       PRES   REMARKS
CHANUTE        SUNNY     73  39  29 N7        30.22F
PARSONS        SUNNY     74  40  29 VRB6      30.24F
COFFEYVILLE    SUNNY     74  40  29 N12       30.22F
EMPORIA        SUNNY     71  41  33 W6        30.23F
GROVE OK       SUNNY     73  45  35 NW5       30.22F
ROGERS AR      SUNNY     71  44  37 N9        30.21F
SILOAM SPRINGS CLOUDY    73  39  29 N12       30.20F
HARRISON AR    SUNNY     74  43  32 NW8       30.18F
NEAR YELLVILLE SUNNY     75  43  31 NW9G18    30.14F

......KANSAS AND MISSOURI......

CITY           SKY/WX    TMP DP  RH WIND       PRES   REMARKS
KANSAS CTY INT SUNNY     72  40  31 NW12      30.19F
DOWNTOWN KC    SUNNY     75  38  26 NW10      30.18F
COLUMBIA       SUNNY     74  36  25 W12G17    30.16F
SEDALIA        SUNNY     75  35  23 NW10      30.19F
ST JOSEPH      SUNNY     75  40  28 NW17G23   30.17F
ST LOUIS       MOSUNNY   75  37  25 NW12G20   30.12F
SPIRIT OF STL  SUNNY     74  39  28 W10       30.12F
KIRKSVILLE     SUNNY     71  38  29 W12G22    30.14F
WICHITA        MOSUNNY   74  40  29 N5        30.25F
TOPEKA         SUNNY     74  41  30 NW8       30.20F
OLATHE         SUNNY     70  37  29 NW9       30.21F

......TENNESSEE......

CITY           SKY/WX    TMP DP  RH WIND       PRES   REMARKS
MEMPHIS        CLOUDY    75  60  59 NE12      30.08F
NASHVILLE      CLOUDY    65  62  90 N7        30.08F

......ARKANSAS.......

CITY           SKY/WX    TMP DP  RH WIND       PRES   REMARKS
FAYETTEVILLE   MOSUNNY   72  48  42 NE7       30.18F
FT SMITH       SUNNY     77  51  40 VRB7      30.14F
LITTLE ROCK    CLOUDY    73  51  46 N10       30.14F

......OKLAHOMA.......

CITY           SKY/WX    TMP DP  RH WIND       PRES   REMARKS
TULSA          MOSUNNY   77  39  25 N9        30.19F
PONCA CITY     SUNNY     76  38  25 N7        30.22F
MCALESTER      SUNNY     79  52  38 N14G22    30.17F
OKLAHOMA CITY  MOSUNNY   76  37  24 N15       30.22F

......IOWA............

CITY           SKY/WX    TMP DP  RH WIND       PRES   REMARKS
DES MOINES     MOSUNNY   74  38  27 NW22G35   30.07F
QUAD CITIES    SUNNY     72  34  24 W17G31    30.01F

......ILLINOIS........

CITY           SKY/WX    TMP DP  RH WIND       PRES   REMARKS
QUINCY         SUNNY     72  35  25 W15G22    30.10F
CHICAGO        MOSUNNY   69  35  28 W22G30    29.93S




USA.gov is the U.S. government's official web portal to all federal, state and local government web resources and services.